Regional Weather Roundup
Issued by NWS

Home | Current Version | Previous Version | Text Only | Print | Product List | Glossary On
Versions: 1 2 3 4 5 6 7 8 9 10 11 12 13 14 15 16 17 18 19 20 21 22 23 24 25 26 27 28 29 30 31 32 33 34 35 36 37 38 39 40 41 42 43 44 45 46 47 48 49 50
000
ASUS43 KDTX 171810
RWRMI
MICHIGAN HOURLY REGIONAL WEATHER ROUNDUP
NATIONAL WEATHER SERVICE DETROIT/PONTIAC MI
200 PM EDT THU APR 17 2014

NOTE: "FAIR" INDICATES FEW OR NO CLOUDS BELOW 12,000 FEET WITH NO
SIGNIFICANT WEATHER AND/OR OBSTRUCTION TO VISIBILITY.

MIZ047>049-052>055-059>063-066>070-074>076-081>083-171900-
SOUTHEAST LOWER MICHIGAN

CITY           SKY/WX    TMP DP  RH WIND       PRES   REMARKS
ADRIAN         SUNNY     61  31  32 S16G22    30.26F
6HR MIN TEMP:  34; 6HR MAX TEMP:  61;

ALMA           MOSUNNY   56  31  38 S14       30.21F
ANN ARBOR      SUNNY     59  30  33 S12       30.27F
BAD AXE        SUNNY     52  31  43 S15       30.27F
6HR MIN TEMP:  33; 6HR MAX TEMP:  53;

CARO           SUNNY     58  29  32 SE13G18   30.24F
DETROIT CITY   SUNNY     59  29  31 S13       30.31F
6HR MIN TEMP:  36; 6HR MAX TEMP:  59;

DETROIT        PTSUNNY   57  32  38 S12G20    30.30F
6HR MIN TEMP:  35; 6HR MAX TEMP:  58;

FLINT          SUNNY     60  30  32 S15G25    30.24F
6HR MIN TEMP:  34; 6HR MAX TEMP:  60;

GROSSE ILE     SUNNY     52  32  46 SE8       30.30F
HILLSDALE      SUNNY     59  29  31 S16       30.24F
6HR MIN TEMP:  36; 6HR MAX TEMP:  59;

HOWELL         SUNNY     58  26  30 S7G22     30.23F
6HR MIN TEMP:  34; 6HR MAX TEMP:  58;


CITY           SKY/WX    TMP DP  RH WIND       PRES   REMARKS
JACKSON        SUNNY     60  28  29 S15G23    30.23F
6HR MIN TEMP:  33; 6HR MAX TEMP:  60;

LAMBERTVILLE   SUNNY     63  32  31 S7G16     30.28F
LANSING        SUNNY     60  28  29 S14G23    30.22F
6HR MIN TEMP:  34; 6HR MAX TEMP:  61;

LAPEER         FAIR      55  31  39 S12       30.26F
MASON          SUNNY     59  30  33 S9G17     30.23F
MONROE           N/A    N/A N/A N/A E10       30.28F
MT. CLEMENS    PTSUNNY   53  32  44 SE14      30.30F
6HR MIN TEMP:  37; 6HR MAX TEMP:  53;

PONTIAC        PTSUNNY   56  27  32 SE18      30.26F
6HR MIN TEMP:  33; 6HR MAX TEMP:  56;

PORT HOPE        N/A     44  33  65 SE17      30.28F
6HR MIN TEMP:  35; 6HR MAX TEMP:  46;

PORT HURON     SUNNY     54  32  43 SE12      30.32F
TRI CITIES     SUNNY     58  32  37 S14G20    30.24F
6HR MIN TEMP:  34; 6HR MAX TEMP:  58;

TROY           SUNNY     56  28  33 SE9G16    30.30F
SAGINAW HB     SUNNY     59  30  33 S10G18    30.24F
YPSILANTI      SUNNY     62  28  27 S10G20    30.28F
6HR MIN TEMP:  37; 6HR MAX TEMP:  62;

$$
MIZ043>046-050>051-056>058-064>065-071>073-077>080-171900-
SOUTHWEST LOWER MICHIGAN

CITY           SKY/WX    TMP DP  RH WIND       PRES   REMARKS
BATTLE CREEK   MOSUNNY   60  30  32 S16G29    30.21F
6HR MIN TEMP:  37; 6HR MAX TEMP:  61;

BENTON HARBOR  SUNNY     58  33  39 W16       30.20S
6HR MIN TEMP:  38; 6HR MAX TEMP:  61;

BIG RAPIDS     PTSUNNY   54  30  40 S10G18    30.17F
6HR MIN TEMP:  33; 6HR MAX TEMP:  54;

COLDWATER      MOSUNNY   60  28  28 SW13G24   30.22F
6HR MIN TEMP:  35; 6HR MAX TEMP:  60;

FREMONT        FAIR      55  28  35 SW17G24   30.18S
HOLLAND        MOSUNNY   59  32  36 SW17      30.21S
6HR MIN TEMP:  38; 6HR MAX TEMP:  59;

GRAND RAPIDS   PTSUNNY   60  32  34 S12G21    30.19F
6HR MIN TEMP:  36; 6HR MAX TEMP:  60;

IONIA          FAIR      60  28  29 S17       30.19F
KALAMAZOO      MOSUNNY   63  30  28 S17       30.21S
6HR MIN TEMP:  37; 6HR MAX TEMP:  63;

LUDINGTON      MOSUNNY   52  32  46 SW20G26   30.17S
MARSHALL       MOSUNNY   58  29  33 S12G23    30.22S
MOUNT PLEASANT CLOUDY    55  33  44 SE13      30.20F
6HR MIN TEMP:  32; 6HR MAX TEMP:  55;

MUSKEGON       PTSUNNY   53  29  39 S23G33    30.21R
6HR MIN TEMP:  38; 6HR MAX TEMP:  55;

SOUTH HAVEN    MOSUNNY   56  30  37 W12G17    30.20R
$$
MIZ016>042-171900-
NORTHERN LOWER MICHIGAN

CITY           SKY/WX    TMP DP  RH WIND       PRES   REMARKS
ALPENA         MOSUNNY   43  29  57 SE18      30.28F
6HR MIN TEMP:  33; 6HR MAX TEMP:  44;

BEAVER ISLAND  CLOUDY    43  26  50 E6        30.20S
6HR MIN TEMP:  32; 6HR MAX TEMP:  43;

BELLAIRE       CLOUDY    47  23  39 S5        30.19R
6HR MIN TEMP:  37; 6HR MAX TEMP:  47;

CADILLAC       PTSUNNY   50  31  48 SE15      30.16F
CHARLEVOIX     CLOUDY    47  24  39 SE8       30.22R
6HR MIN TEMP:  36; 6HR MAX TEMP:  47;

FRANKFORT      CLOUDY    49  29  45 S8        30.16S
GAYLORD        CLOUDY    47  23  38 SE15G25   30.16F
6HR MIN TEMP:  31; 6HR MAX TEMP:  47;

GRAYLING       CLOUDY    49  24  38 SE15      30.18F
6HR MIN TEMP:  33; 6HR MAX TEMP:  49;

HARBOR SPRINGS CLOUDY    48  25  41 E5        30.18F
HOUGHTON LAKE  CLOUDY    49  27  42 SE12G23   30.18F
6HR MIN TEMP:  32; 6HR MAX TEMP:  50;

MANISTEE       CLOUDY    52  28  40 S15G21    30.16S
OSCODA         SUNNY     44  31  60 E9        30.28F
PELLSTON       CLOUDY    48  24  39 SE13G24   30.20F
6HR MIN TEMP:  35; 6HR MAX TEMP:  48;

ROGERS CITY    SUNNY     44  30  57 SE13G20   30.27F
TRAVERSE CITY  CLOUDY    47  25  42 SE8G18    30.17F
6HR MIN TEMP:  36; 6HR MAX TEMP:  47;

$$
MIZ007>008-015-171900-
EASTERN UPPER MICHIGAN

CITY           SKY/WX    TMP DP  RH WIND       PRES   REMARKS
KINROSS        MOSUNNY   36  27  69 E29G37    30.24F WCI  23
6HR MIN TEMP:  28; 6HR MAX TEMP:  36;

MACKINAC ISLAN CLOUDY    33  29  84 E22G31    30.22F WCI  21
6HR MIN TEMP:  32; 6HR MAX TEMP:  34;

NEWBERRY       CLOUDY    35  28  75 E13G20    30.21F WCI  26
6HR MIN TEMP:  30; 6HR MAX TEMP:  36;

S. S. MARIE    CLOUDY    37  24  59 E15G28    30.25F WCI  28
6HR MIN TEMP:  29; 6HR MAX TEMP:  37; 6HR PCP: TRACE;

MUNISING         N/A     35  30  82 SE7       30.20R WCI  29
6HR MIN TEMP:  33; 6HR MAX TEMP:  38; 6HR PCP:  0.07;

$$
MIZ004>006-011>014-085-171900-
CENTRAL UPPER MICHIGAN

CITY           SKY/WX    TMP DP  RH WIND       PRES   REMARKS
MANISTIQUE     CLOUDY    33  31  92 E8        30.19F WCI  26
6HR MIN TEMP:  32; 6HR MAX TEMP:  34; 6HR PCP:  0.02;

ESCANABA       CLOUDY    34  28  80 E3        30.17S
6HR MIN TEMP:  32; 6HR MAX TEMP:  34; 6HR PCP:  0.03;

MENOMINEE      CLOUDY    39  32  75 S10       30.13F WCI  32
6HR MIN TEMP:  34; 6HR MAX TEMP:  39; 6HR PCP:  0.02;

SAWYER-GWINN   CLOUDY    32  30  93 SE8       30.15S WCI  25
$$
MIZ001>003-009>011-084-171900-
WESTERN UPPER MICHIGAN

CITY           SKY/WX    TMP DP  RH WIND       PRES   REMARKS
IRON MOUNTAIN  CLOUDY    35  30  82 SE3       30.13R
6HR MIN TEMP:  31; 6HR MAX TEMP:  35; 6HR PCP:  0.04;

HOUGHTON       CLOUDY    31  28  89 E13       30.15S FOG     WCI  21
6HR MIN TEMP:  29; 6HR MAX TEMP:  31; 6HR PCP: TRACE;

COPPER HARBOR    N/A     33  30  88 S8G22     30.18F WCI  26
6HR MIN TEMP:  31; 6HR MAX TEMP:  33; 6HR PCP:  0.64;

IRONWOOD       CLOUDY    34  28  80 W9        30.12R WCI  26
6HR MIN TEMP:  30; 6HR MAX TEMP:  34;

$$

ABBREVIATIONS USED IN REMARKS
   TC - TEMPERATURE IN CELSIUS
  WCI - WIND CHILL INDEX
   HX - HEAT INDEX
  VSB - VISIBILITY




USA.gov is the U.S. government's official web portal to all federal, state and local government web resources and services.